Location: Bezawada
(16.5136°N, 80.6297°E)
Time: 18:02:39
(UTC+00:00)

CZ-2C R/B - Pass Details

Date: 27 February 2020
Orbit: 703 x 909 km, 98.1° (Epoch: 28 March)

Event Time Altitude Azimuth Distance (km) Brightness Sun altitude
Exits shadow 14:15:30 29° 33° (NNE) 1,604 4.3 -22.7°
Drops below altitude 10° 14:18:41 10° 9° (N) 2,571 5.6 -23.5°
Sets 14:21:13 0° 1° (N) 3,496 6.4 -24.1°
